Time,TemperatureF,DewpointF,PressureIn,WindDirection,WindDirectionDegrees,WindSpeedMPH,WindSpeedGustMPH,Humidity,HourlyPrecipIn,Conditions,Clouds,dailyrainin,SolarRadiationWatts/m^2,SoftwareType,DateUTC
2013-07-29 00:00:00,70.4,65.3,30.02,ENE,59,0.0,0.0,84,0.00,,---,0.00,0.00,VWS V14.00,2013-07-29 05:00:00,
2013-07-29 00:01:00,70.5,65.4,30.02,ENE,62,0.0,0.0,84,0.00,,---,0.00,0.00,VWS V14.00,2013-07-29 05:01:00,
2013-07-29 00:06:00,70.6,65.5,30.01,East,94,0.0,5.0,84,0.00,,---,0.00,0.00,VWS V14.00,2013-07-29 05:06:00,
2013-07-29 00:11:00,70.7,65.6,30.02,East,95,0.0,5.0,84,0.00,,---,0.00,0.00,VWS V14.00,2013-07-29 05:11:00,
2013-07-29 00:16:00,70.7,65.6,30.02,East,95,0.0,5.0,84,0.00,,---,0.00,0.00,VWS V14.00,2013-07-29 05:16:00,
2013-07-29 00:22:00,70.7,65.6,30.02,East,95,0.0,5.0,84,0.00,,---,0.00,0.00,VWS V14.00,2013-07-29 05:22:00,
2013-07-29 00:27:00,70.7,65.6,30.02,East,95,0.0,0.0,84,0.00,,---,0.00,0.00,VWS V14.00,2013-07-29 05:27:00,
2013-07-29 00:30:00,70.7,65.6,30.02,East,95,0.0,5.0,84,0.00,,---,0.00,0.00,VWS V14.00,2013-07-29 05:30:00,
2013-07-29 00:32:00,70.7,65.6,30.01,East,95,0.0,1.0,84,0.00,,---,0.00,0.00,VWS V14.00,2013-07-29 05:32:00,
2013-07-29 00:37:00,70.7,66.0,30.01,East,95,0.0,1.0,85,0.00,,---,0.00,0.00,VWS V14.00,2013-07-29 05:37:00,
2013-07-29 00:42:00,70.7,66.0,30.01,East,95,0.0,1.0,85,0.00,,---,0.00,0.00,VWS V14.00,2013-07-29 05:42:00,
2013-07-29 00:47:00,70.6,65.5,30.02,East,95,0.0,1.0,84,0.00,,---,0.00,0.00,VWS V14.00,2013-07-29 05:47:00,
2013-07-29 00:52:00,70.6,65.5,30.01,East,95,0.0,1.0,84,0.00,,---,0.00,0.00,VWS V14.00,2013-07-29 05:52:00,
2013-07-29 00:57:00,70.5,65.4,30.01,East,95,0.0,0.0,84,0.00,,---,0.00,0.00,VWS V14.00,2013-07-29 05:57:00,
2013-07-29 01:00:00,70.5,65.4,30.01,East,95,0.0,1.0,84,0.00,,---,0.00,0.00,VWS V14.00,2013-07-29 06:00:00,
2013-07-29 01:02:00,70.5,65.4,30.01,East,95,0.0,0.0,84,0.00,,---,0.00,0.00,VWS V14.00,2013-07-29 06:02:00,
2013-07-29 01:07:00,70.4,65.7,30.01,East,95,0.0,0.0,85,0.00,,---,0.00,0.00,VWS V14.00,2013-07-29 06:07:00,
2013-07-29 01:12:00,70.4,65.7,30.01,East,95,0.0,0.0,85,0.00,,---,0.00,0.00,VWS V14.00,2013-07-29 06:12:00,
2013-07-29 01:17:00,70.3,65.6,30.01,East,95,0.0,0.0,85,0.00,,---,0.00,0.00,VWS V14.00,2013-07-29 06:17:00,
2013-07-29 01:22:00,70.3,65.6,30.01,East,95,0.0,0.0,85,0.00,,---,0.00,0.00,VWS V14.00,2013-07-29 06:22:00,
2013-07-29 01:27:00,70.2,65.5,30.02,East,95,0.0,0.0,85,0.00,,---,0.00,0.00,VWS V14.00,2013-07-29 06:27:00,
2013-07-29 01:30:00,70.2,65.5,30.02,East,95,0.0,0.0,85,0.00,,---,0.00,0.00,VWS V14.00,2013-07-29 06:30:00,
2013-07-29 01:32:00,70.1,65.4,30.02,East,95,0.0,0.0,85,0.00,,---,0.00,0.00,VWS V14.00,2013-07-29 06:32:00,
2013-07-29 01:37:00,70.1,65.4,30.02,East,95,0.0,0.0,85,0.00,,---,0.00,0.00,VWS V14.00,2013-07-29 06:37:00,
2013-07-29 01:42:00,70.0,65.6,30.02,East,95,0.0,0.0,86,0.00,,---,0.00,0.00,VWS V14.00,2013-07-29 06:42:00,
2013-07-29 01:47:00,70.0,65.3,30.02,East,95,0.0,0.0,85,0.00,,---,0.00,0.00,VWS V14.00,2013-07-29 06:47:00,
2013-07-29 01:52:00,69.9,65.5,30.02,East,95,0.0,1.0,86,0.00,,---,0.00,0.00,VWS V14.00,2013-07-29 06:52:00,
2013-07-29 01:57:00,69.9,65.5,30.02,East,95,0.0,0.0,86,0.00,,---,0.00,0.00,VWS V14.00,2013-07-29 06:57:00,
2013-07-29 02:00:00,69.9,65.5,30.02,East,95,0.0,1.0,86,0.00,,---,0.00,0.00,VWS V14.00,2013-07-29 07:00:00,
2013-07-29 02:02:00,69.8,65.4,30.02,East,95,0.0,0.0,86,0.00,,---,0.00,0.00,VWS V14.00,2013-07-29 07:02:00,
2013-07-29 02:07:00,69.8,65.4,30.02,East,95,0.0,0.0,86,0.00,,---,0.00,0.00,VWS V14.00,2013-07-29 07:07:00,
2013-07-29 02:12:00,69.8,65.4,30.02,East,95,0.0,0.0,86,0.00,,---,0.00,0.00,VWS V14.00,2013-07-29 07:12:00,
2013-07-29 02:17:00,69.7,65.3,30.02,East,95,0.0,0.0,86,0.00,,---,0.00,0.00,VWS V14.00,2013-07-29 07:17:00,
2013-07-29 02:22:00,69.7,65.3,30.03,East,95,0.0,0.0,86,0.00,,---,0.00,0.00,VWS V14.00,2013-07-29 07:22:00,
2013-07-29 02:27:00,69.7,65.3,30.03,East,95,0.0,0.0,86,0.00,,---,0.00,0.00,VWS V14.00,2013-07-29 07:27:00,
2013-07-29 02:30:00,69.7,65.3,30.03,East,95,0.0,0.0,86,0.00,,---,0.00,0.00,VWS V14.00,2013-07-29 07:30:00,
2013-07-29 02:32:00,69.7,65.7,30.02,East,95,0.0,0.0,87,0.00,,---,0.00,0.00,VWS V14.00,2013-07-29 07:32:00,
2013-07-29 02:37:00,69.7,65.7,30.03,East,95,0.0,0.0,87,0.00,,---,0.00,0.00,VWS V14.00,2013-07-29 07:37:00,
2013-07-29 02:42:00,69.6,65.6,30.03,East,95,0.0,0.0,87,0.00,,---,0.00,0.00,VWS V14.00,2013-07-29 07:42:00,
2013-07-29 02:47:00,69.5,65.5,30.03,East,95,0.0,0.0,87,0.00,,---,0.00,0.00,VWS V14.00,2013-07-29 07:47:00,
2013-07-29 02:52:00,69.5,65.5,30.03,East,95,0.0,0.0,87,0.00,,---,0.00,0.00,VWS V14.00,2013-07-29 07:52:00,
2013-07-29 02:57:00,69.4,65.4,30.03,East,95,0.0,0.0,87,0.00,,---,0.00,0.00,VWS V14.00,2013-07-29 07:57:00,
2013-07-29 03:00:00,69.4,65.4,30.03,East,95,0.0,0.0,87,0.00,,---,0.00,0.00,VWS V14.00,2013-07-29 08:00:00,
2013-07-29 03:02:00,69.4,65.4,30.03,East,95,0.0,0.0,87,0.00,,---,0.00,0.00,VWS V14.00,2013-07-29 08:02:00,
2013-07-29 03:07:00,69.3,65.3,30.03,East,95,0.0,0.0,87,0.00,,---,0.00,0.00,VWS V14.00,2013-07-29 08:07:00,
2013-07-29 03:12:00,69.3,65.3,30.03,East,95,0.0,0.0,87,0.00,,---,0.00,0.00,VWS V14.00,2013-07-29 08:12:00,
2013-07-29 03:17:00,69.3,65.3,30.03,East,95,0.0,0.0,87,0.00,,---,0.00,0.00,VWS V14.00,2013-07-29 08:17:00,
2013-07-29 03:22:00,69.3,65.3,30.03,East,95,0.0,0.0,87,0.00,,---,0.00,0.00,VWS V14.00,2013-07-29 08:22:00,
2013-07-29 03:27:00,69.3,65.3,30.03,East,95,0.0,0.0,87,0.00,,---,0.00,0.00,VWS V14.00,2013-07-29 08:27:00,
2013-07-29 03:30:00,69.3,65.3,30.03,East,95,0.0,0.0,87,0.00,,---,0.00,0.00,VWS V14.00,2013-07-29 08:30:00,
2013-07-29 03:32:00,69.2,65.2,30.02,East,95,0.0,0.0,87,0.00,,---,0.00,0.00,VWS V14.00,2013-07-29 08:32:00,
2013-07-29 03:37:00,69.2,65.2,30.03,East,95,0.0,0.0,87,0.00,,---,0.00,0.00,VWS V14.00,2013-07-29 08:37:00,
2013-07-29 03:42:00,69.1,65.1,30.03,East,95,0.0,1.0,87,0.00,,---,0.00,0.00,VWS V14.00,2013-07-29 08:42:00,
2013-07-29 03:47:00,69.0,65.0,30.03,East,95,0.0,1.0,87,0.00,,---,0.00,0.00,VWS V14.00,2013-07-29 08:47:00,
2013-07-29 03:52:00,69.0,65.0,30.03,East,95,0.0,1.0,87,0.00,,---,0.00,0.00,VWS V14.00,2013-07-29 08:52:00,
2013-07-29 03:57:00,69.0,65.0,30.03,East,95,0.0,0.0,87,0.00,,---,0.00,0.00,VWS V14.00,2013-07-29 08:57:00,
2013-07-29 04:00:00,69.0,65.0,30.03,East,95,0.0,1.0,87,0.00,,---,0.00,0.00,VWS V14.00,2013-07-29 09:00:00,
2013-07-29 04:02:00,68.9,64.9,30.03,East,95,0.0,0.0,87,0.00,,---,0.00,0.00,VWS V14.00,2013-07-29 09:02:00,
2013-07-29 04:07:00,68.9,64.9,30.03,East,95,0.0,0.0,87,0.00,,---,0.00,0.00,VWS V14.00,2013-07-29 09:07:00,
2013-07-29 04:12:00,68.9,64.9,30.03,East,95,0.0,0.0,87,0.00,,---,0.00,0.00,VWS V14.00,2013-07-29 09:12:00,
2013-07-29 04:17:00,68.8,64.8,30.03,East,95,0.0,0.0,87,0.00,,---,0.00,0.00,VWS V14.00,2013-07-29 09:17:00,
2013-07-29 04:22:00,68.8,64.4,30.04,East,95,0.0,0.0,86,0.00,,---,0.00,0.00,VWS V14.00,2013-07-29 09:22:00,
2013-07-29 04:27:00,68.8,64.4,30.04,East,95,0.0,0.0,86,0.00,,---,0.00,0.00,VWS V14.00,2013-07-29 09:27:00,
2013-07-29 04:30:00,68.8,64.4,30.04,East,95,0.0,0.0,86,0.00,,---,0.00,0.00,VWS V14.00,2013-07-29 09:30:00,
2013-07-29 04:32:00,68.7,64.3,30.04,East,95,0.0,0.0,86,0.00,,---,0.00,0.00,VWS V14.00,2013-07-29 09:32:00,
2013-07-29 04:37:00,68.6,64.6,30.04,East,95,0.0,0.0,87,0.00,,---,0.00,0.00,VWS V14.00,2013-07-29 09:37:00,
2013-07-29 04:42:00,68.5,64.2,30.04,East,95,0.0,0.0,86,0.00,,---,0.00,0.00,VWS V14.00,2013-07-29 09:42:00,
2013-07-29 04:47:00,68.5,64.5,30.04,East,95,0.0,0.0,87,0.00,,---,0.00,0.00,VWS V14.00,2013-07-29 09:47:00,
2013-07-29 04:52:00,68.3,64.0,30.04,East,95,0.0,0.0,86,0.00,,---,0.00,0.00,VWS V14.00,2013-07-29 09:52:00,
2013-07-29 04:57:00,68.2,64.2,30.04,East,95,0.0,0.0,87,0.00,,---,0.00,0.00,VWS V14.00,2013-07-29 09:57:00,
2013-07-29 05:00:00,68.3,64.3,30.04,East,95,0.0,0.0,87,0.00,,---,0.00,0.00,VWS V14.00,2013-07-29 10:00:00,
2013-07-29 05:02:00,68.1,64.1,30.04,East,95,0.0,0.0,87,0.00,,---,0.00,0.00,VWS V14.00,2013-07-29 10:02:00,
2013-07-29 05:07:00,68.1,64.4,30.04,East,95,0.0,0.0,88,0.00,,---,0.00,0.00,VWS V14.00,2013-07-29 10:07:00,
2013-07-29 05:12:00,68.0,64.3,30.04,East,95,0.0,0.0,88,0.00,,---,0.00,0.00,VWS V14.00,2013-07-29 10:12:00,
2013-07-29 05:17:00,67.9,64.2,30.04,East,95,0.0,0.0,88,0.00,,---,0.00,0.00,VWS V14.00,2013-07-29 10:17:00,
2013-07-29 05:22:00,67.8,64.1,30.04,East,95,0.0,0.0,88,0.00,,---,0.00,0.00,VWS V14.00,2013-07-29 10:22:00,
2013-07-29 05:27:00,67.7,64.0,30.04,East,95,0.0,0.0,88,0.00,,---,0.00,0.00,VWS V14.00,2013-07-29 10:27:00,
2013-07-29 05:30:00,67.7,64.0,30.04,East,95,0.0,0.0,88,0.00,,---,0.00,0.00,VWS V14.00,2013-07-29 10:30:00,
2013-07-29 05:32:00,67.6,64.2,30.04,East,95,0.0,0.0,89,0.00,,---,0.00,0.00,VWS V14.00,2013-07-29 10:32:00,
2013-07-29 05:37:00,67.5,64.2,30.04,East,95,0.0,0.0,89,0.00,,---,0.00,0.00,VWS V14.00,2013-07-29 10:37:00,
2013-07-29 05:43:00,67.5,64.2,30.04,East,95,0.0,0.0,89,0.00,,---,0.00,0.00,VWS V14.00,2013-07-29 10:43:00,
2013-07-29 05:48:00,67.4,64.1,30.05,East,95,0.0,0.0,89,0.00,,---,0.00,0.00,VWS V14.00,2013-07-29 10:48:00,
2013-07-29 05:53:00,67.3,64.0,30.04,East,95,0.0,0.0,89,0.00,,---,0.00,0.00,VWS V14.00,2013-07-29 10:53:00,
2013-07-29 05:58:00,67.2,63.8,30.05,East,95,0.0,0.0,89,0.00,,---,0.00,0.00,VWS V14.00,2013-07-29 10:58:00,
2013-07-29 06:00:00,67.3,64.0,30.04,East,95,0.0,0.0,89,0.00,,---,0.00,0.00,VWS V14.00,2013-07-29 11:00:00,
2013-07-29 06:03:00,67.1,63.8,30.04,East,95,0.0,1.0,89,0.00,,---,0.00,0.00,VWS V14.00,2013-07-29 11:03:00,
2013-07-29 06:08:00,67.0,63.7,30.05,East,95,0.0,1.0,89,0.00,,---,0.00,0.00,VWS V14.00,2013-07-29 11:08:00,
2013-07-29 06:14:00,67.0,63.7,30.05,East,95,0.0,1.0,89,0.00,,---,0.00,5.00,VWS V14.00,2013-07-29 11:14:00,
2013-07-29 06:19:00,66.9,63.9,30.05,East,95,0.0,1.0,90,0.00,,---,0.00,7.00,VWS V14.00,2013-07-29 11:19:00,
2013-07-29 06:24:00,66.9,63.9,30.05,East,95,0.0,1.0,90,0.00,,---,0.00,16.00,VWS V14.00,2013-07-29 11:24:00,
2013-07-29 06:29:00,66.8,63.8,30.05,East,95,0.0,0.0,90,0.00,,---,0.00,21.00,VWS V14.00,2013-07-29 11:29:00,
2013-07-29 06:30:00,66.9,63.9,30.05,East,95,0.0,1.0,90,0.00,,---,0.00,19.00,VWS V14.00,2013-07-29 11:30:00,
2013-07-29 06:34:00,66.9,63.9,30.05,East,95,0.0,0.0,90,0.00,,---,0.00,30.00,VWS V14.00,2013-07-29 11:34:00,
2013-07-29 06:39:00,66.9,63.9,30.05,East,95,0.0,0.0,90,0.00,,---,0.00,37.00,VWS V14.00,2013-07-29 11:39:00,
2013-07-29 06:44:00,66.9,63.9,30.06,East,95,0.0,0.0,90,0.00,,---,0.00,47.00,VWS V14.00,2013-07-29 11:44:00,
2013-07-29 06:49:00,67.0,64.0,30.06,East,95,0.0,0.0,90,0.00,,---,0.00,54.00,VWS V14.00,2013-07-29 11:49:00,
2013-07-29 06:54:00,67.0,64.0,30.06,East,95,0.0,0.0,90,0.00,,---,0.00,72.00,VWS V14.00,2013-07-29 11:54:00,
2013-07-29 06:59:00,67.2,64.2,30.07,East,95,0.0,1.0,90,0.00,,---,0.00,83.00,VWS V14.00,2013-07-29 11:59:00,
2013-07-29 07:00:00,67.1,64.1,30.06,East,95,0.0,2.0,90,0.00,,---,0.00,77.00,VWS V14.00,2013-07-29 12:00:00,
2013-07-29 07:04:00,67.4,64.4,30.07,East,95,0.0,1.0,90,0.00,,---,0.00,88.00,VWS V14.00,2013-07-29 12:04:00,
2013-07-29 07:09:00,67.6,64.6,30.07,East,95,0.0,4.0,90,0.00,,---,0.00,91.00,VWS V14.00,2013-07-29 12:09:00,
2013-07-29 07:14:00,67.9,64.5,30.07,East,95,1.0,4.0,89,0.00,,---,0.00,88.00,VWS V14.00,2013-07-29 12:14:00,
2013-07-29 07:19:00,68.2,64.8,30.07,East,95,0.0,5.0,89,0.00,,---,0.00,88.00,VWS V14.00,2013-07-29 12:19:00,
2013-07-29 07:24:00,68.4,64.7,30.07,East,95,0.0,5.0,88,0.00,,---,0.00,91.00,VWS V14.00,2013-07-29 12:24:00,
2013-07-29 07:29:00,68.6,64.9,30.08,East,98,0.0,0.0,88,0.00,,---,0.00,97.00,VWS V14.00,2013-07-29 12:29:00,
2013-07-29 07:30:00,68.4,64.7,30.08,East,95,0.0,5.0,88,0.00,,---,0.00,93.00,VWS V14.00,2013-07-29 12:30:00,
2013-07-29 07:34:00,68.7,65.0,30.08,East,98,0.0,0.0,88,0.00,,---,0.00,98.00,VWS V14.00,2013-07-29 12:34:00,
2013-07-29 07:39:00,68.9,64.9,30.08,East,99,0.0,1.0,87,0.00,,---,0.00,104.00,VWS V14.00,2013-07-29 12:39:00,
2013-07-29 07:44:00,69.0,65.0,30.08,East,99,0.0,1.0,87,0.00,,---,0.00,114.00,VWS V14.00,2013-07-29 12:44:00,
2013-07-29 07:50:00,69.2,65.2,30.09,East,100,0.0,1.0,87,0.00,,---,0.00,113.00,VWS V14.00,2013-07-29 12:50:00,
2013-07-29 07:55:00,69.3,65.3,30.08,East,100,0.0,1.0,87,0.00,,---,0.00,98.00,VWS V14.00,2013-07-29 12:55:00,
2013-07-29 08:00:00,69.4,65.0,30.09,East,100,0.0,3.0,86,0.00,,---,0.00,93.00,VWS V14.00,2013-07-29 13:00:00,
2013-07-29 08:05:00,69.4,65.4,30.09,East,100,0.0,3.0,87,0.00,,---,0.00,88.00,VWS V14.00,2013-07-29 13:05:00,
2013-07-29 08:10:00,69.5,65.5,30.09,East,100,0.0,3.0,87,0.00,,---,0.00,79.00,VWS V14.00,2013-07-29 13:10:00,
2013-07-29 08:15:00,69.6,65.6,30.09,East,100,0.0,3.0,87,0.00,,---,0.00,72.00,VWS V14.00,2013-07-29 13:15:00,
2013-07-29 08:20:00,69.8,65.8,30.09,East,100,0.0,3.0,87,0.00,,---,0.00,81.00,VWS V14.00,2013-07-29 13:20:00,
2013-07-29 08:25:00,70.0,65.6,30.10,ESE,107,3.0,7.0,86,0.00,,---,0.00,65.00,VWS V14.00,2013-07-29 13:25:00,
2013-07-29 08:30:00,70.2,65.1,30.10,ESE,117,3.0,5.0,84,0.00,,---,0.00,72.00,VWS V14.00,2013-07-29 13:30:00,
2013-07-29 08:35:00,70.6,65.9,30.10,ESE,119,0.0,5.0,85,0.00,,---,0.00,69.00,VWS V14.00,2013-07-29 13:35:00,
2013-07-29 08:40:00,70.9,65.8,30.10,ESE,122,0.0,5.0,84,0.00,,---,0.00,98.00,VWS V14.00,2013-07-29 13:40:00,
2013-07-29 08:45:00,71.2,65.8,30.10,ESE,108,5.0,5.0,83,0.00,,---,0.00,104.00,VWS V14.00,2013-07-29 13:45:00,
2013-07-29 08:50:00,71.6,65.8,30.10,SE,136,3.0,6.0,82,0.00,,---,0.00,223.00,VWS V14.00,2013-07-29 13:50:00,
2013-07-29 08:55:00,72.0,65.5,30.10,ESE,117,0.0,7.0,80,0.00,,---,0.00,241.00,VWS V14.00,2013-07-29 13:55:00,
2013-07-29 09:00:00,72.1,65.9,30.10,ESE,115,0.0,7.0,81,0.00,,---,0.00,199.00,VWS V14.00,2013-07-29 14:00:00,
2013-07-29 09:01:00,72.4,65.5,30.10,ESE,102,0.0,9.0,79,0.00,,---,0.00,563.00,VWS V14.00,2013-07-29 14:01:00,
2013-07-29 09:06:00,72.8,65.9,30.10,SE,133,6.0,9.0,79,0.00,,---,0.00,540.00,VWS V14.00,2013-07-29 14:06:00,
2013-07-29 09:11:00,73.3,65.7,30.10,SE,143,5.0,9.0,77,0.00,,---,0.00,216.00,VWS V14.00,2013-07-29 14:11:00,
2013-07-29 09:17:00,73.6,66.3,30.10,SE,134,0.0,9.0,78,0.00,,---,0.00,508.00,VWS V14.00,2013-07-29 14:17:00,
2013-07-29 09:21:00,74.0,67.1,30.10,SE,136,0.0,9.0,79,0.00,,---,0.00,459.00,VWS V14.00,2013-07-29 14:21:00,
2013-07-29 09:27:00,74.3,66.2,30.10,ESE,117,0.0,0.0,76,0.00,,---,0.00,373.00,VWS V14.00,2013-07-29 14:27:00,
2013-07-29 09:30:00,74.3,66.2,30.10,ESE,119,0.0,9.0,76,0.00,,---,0.00,373.00,VWS V14.00,2013-07-29 14:30:00,
2013-07-29 09:32:00,74.6,66.5,30.10,ESE,109,3.0,5.0,76,0.00,,---,0.00,615.00,VWS V14.00,2013-07-29 14:32:00,
2013-07-29 09:37:00,75.0,66.2,30.10,East,97,3.0,5.0,74,0.00,,---,0.00,631.00,VWS V14.00,2013-07-29 14:37:00,
2013-07-29 09:42:00,75.5,66.6,30.10,SSE,148,0.0,5.0,74,0.00,,---,0.00,592.00,VWS V14.00,2013-07-29 14:42:00,
2013-07-29 09:47:00,75.9,67.0,30.10,ESE,112,0.0,6.0,74,0.00,,---,0.00,659.00,VWS V14.00,2013-07-29 14:47:00,
2013-07-29 09:52:00,76.3,66.6,30.10,ESE,104,0.0,6.0,72,0.00,,---,0.00,668.00,VWS V14.00,2013-07-29 14:52:00,
2013-07-29 09:57:00,76.7,67.0,30.10,ESE,112,0.0,0.0,72,0.00,,---,0.00,675.00,VWS V14.00,2013-07-29 14:57:00,
2013-07-29 10:00:00,76.7,67.4,30.10,ESE,113,0.0,6.0,73,0.00,,---,0.00,673.00,VWS V14.00,2013-07-29 15:00:00,
2013-07-29 10:02:00,77.1,67.4,30.10,ESE,111,0.0,7.0,72,0.00,,---,0.00,684.00,VWS V14.00,2013-07-29 15:02:00,
2013-07-29 10:07:00,77.6,68.3,30.10,ESE,110,0.0,7.0,73,0.00,,---,0.00,698.00,VWS V14.00,2013-07-29 15:07:00,
2013-07-29 10:12:00,78.0,67.8,30.10,ESE,120,0.0,7.0,71,0.00,,---,0.00,721.00,VWS V14.00,2013-07-29 15:12:00,
2013-07-29 10:17:00,78.4,67.8,30.10,ESE,106,0.0,7.0,70,0.00,,---,0.00,756.00,VWS V14.00,2013-07-29 15:17:00,
2013-07-29 10:22:00,78.7,68.5,30.10,ESE,107,4.0,7.0,71,0.00,,---,0.00,763.00,VWS V14.00,2013-07-29 15:22:00,
2013-07-29 10:27:00,79.1,67.6,30.10,East,96,0.0,0.0,68,0.00,,---,0.00,819.00,VWS V14.00,2013-07-29 15:27:00,
2013-07-29 10:30:00,79.1,67.6,30.10,East,96,0.0,7.0,68,0.00,,---,0.00,809.00,VWS V14.00,2013-07-29 15:30:00,
2013-07-29 10:32:00,79.4,67.5,30.10,SE,127,0.0,5.0,67,0.00,,---,0.00,867.00,VWS V14.00,2013-07-29 15:32:00,
2013-07-29 10:37:00,79.5,67.2,30.10,East,92,0.0,7.0,66,0.00,,---,0.00,612.00,VWS V14.00,2013-07-29 15:37:00,
2013-07-29 10:42:00,79.6,66.4,30.10,ESE,116,0.0,7.0,64,0.00,,---,0.00,571.00,VWS V14.00,2013-07-29 15:42:00,
2013-07-29 10:47:00,79.8,67.4,30.10,SE,135,0.0,10.0,66,0.00,,---,0.00,819.00,VWS V14.00,2013-07-29 15:47:00,
2013-07-29 10:52:00,79.9,67.1,30.10,SSE,156,0.0,10.0,65,0.00,,---,0.00,828.00,VWS V14.00,2013-07-29 15:52:00,
2013-07-29 10:57:00,79.9,67.1,30.10,SSE,161,0.0,0.0,65,0.00,,---,0.00,851.00,VWS V14.00,2013-07-29 15:57:00,
2013-07-29 11:00:00,80.0,67.2,30.10,SSE,158,0.0,10.0,65,0.00,,---,0.00,823.00,VWS V14.00,2013-07-29 16:00:00,
2013-07-29 11:02:00,80.0,68.1,30.10,ESE,115,0.0,7.0,67,0.00,,---,0.00,779.00,VWS V14.00,2013-07-29 16:02:00,
2013-07-29 11:07:00,80.2,67.8,30.10,SSE,150,0.0,7.0,66,0.00,,---,0.00,863.00,VWS V14.00,2013-07-29 16:07:00,
2013-07-29 11:12:00,80.3,68.3,30.10,ESE,119,0.0,7.0,67,0.00,,---,0.00,854.00,VWS V14.00,2013-07-29 16:12:00,
2013-07-29 11:18:00,80.8,69.3,30.10,ESE,119,0.0,7.0,68,0.00,,---,0.00,858.00,VWS V14.00,2013-07-29 16:18:00,
2013-07-29 11:22:00,81.3,68.4,30.10,ESE,111,0.0,7.0,65,0.00,,---,0.00,874.00,VWS V14.00,2013-07-29 16:22:00,
2013-07-29 11:27:00,81.6,67.8,30.10,SSE,159,6.0,6.0,63,0.00,,---,0.00,830.00,VWS V14.00,2013-07-29 16:27:00,
2013-07-29 11:30:00,81.5,67.2,30.10,South,185,0.0,7.0,62,0.00,,---,0.00,905.00,VWS V14.00,2013-07-29 16:30:00,
2013-07-29 11:33:00,81.7,66.9,30.10,SE,144,0.0,7.0,61,0.00,,---,0.00,896.00,VWS V14.00,2013-07-29 16:33:00,
2013-07-29 11:38:00,81.8,66.1,30.10,SE,127,0.0,7.0,59,0.00,,---,0.00,893.00,VWS V14.00,2013-07-29 16:38:00,
2013-07-29 11:43:00,81.9,66.7,30.09,East,100,0.0,7.0,60,0.00,,---,0.00,902.00,VWS V14.00,2013-07-29 16:43:00,
2013-07-29 11:48:00,82.3,67.5,30.09,South,174,0.0,7.0,61,0.00,,---,0.00,918.00,VWS V14.00,2013-07-29 16:48:00,
2013-07-29 11:53:00,82.5,68.6,30.09,SE,144,0.0,7.0,63,0.00,,---,0.00,830.00,VWS V14.00,2013-07-29 16:53:00,
2013-07-29 11:58:00,82.8,68.5,30.09,SSE,159,1.0,3.0,62,0.00,,---,0.00,427.00,VWS V14.00,2013-07-29 16:58:00,
2013-07-29 12:00:00,82.7,67.9,30.09,SSW,212,0.0,7.0,61,0.00,,---,0.00,575.00,VWS V14.00,2013-07-29 17:00:00,
2013-07-29 12:03:00,82.8,68.5,30.09,ESE,123,0.0,6.0,62,0.00,,---,0.00,134.00,VWS V14.00,2013-07-29 17:03:00,
2013-07-29 12:08:00,83.0,69.1,30.09,ESE,115,0.0,6.0,63,0.00,,---,0.00,127.00,VWS V14.00,2013-07-29 17:08:00,
2013-07-29 12:13:00,83.4,69.0,30.09,SE,136,0.0,6.0,62,0.00,,---,0.00,158.00,VWS V14.00,2013-07-29 17:13:00,
2013-07-29 12:18:00,83.8,68.9,30.09,ESE,114,0.0,6.0,61,0.00,,---,0.00,243.00,VWS V14.00,2013-07-29 17:18:00,
2013-07-29 12:23:00,84.2,70.2,30.09,ESE,123,5.0,6.0,63,0.00,,---,0.00,364.00,VWS V14.00,2013-07-29 17:23:00,
2013-07-29 12:28:00,84.4,69.5,30.09,ESE,122,0.0,0.0,61,0.00,,---,0.00,773.00,VWS V14.00,2013-07-29 17:28:00,
2013-07-29 12:30:00,84.3,69.4,30.09,ESE,113,0.0,6.0,61,0.00,,---,0.00,381.00,VWS V14.00,2013-07-29 17:30:00,
2013-07-29 12:33:00,84.7,70.2,30.09,SE,125,0.0,1.0,62,0.00,,---,0.00,1011.00,VWS V14.00,2013-07-29 17:33:00,
2013-07-29 12:38:00,85.1,71.1,30.09,SE,138,0.0,1.0,63,0.00,,---,0.00,988.00,VWS V14.00,2013-07-29 17:38:00,
2013-07-29 12:43:00,85.5,71.0,30.09,East,99,0.0,1.0,62,0.00,,---,0.00,984.00,VWS V14.00,2013-07-29 17:43:00,
2013-07-29 12:48:00,85.9,71.8,30.09,ESE,102,0.0,6.0,63,0.00,,---,0.00,977.00,VWS V14.00,2013-07-29 17:48:00,
2013-07-29 12:53:00,86.4,70.9,30.09,SE,139,0.0,6.0,60,0.00,,---,0.00,970.00,VWS V14.00,2013-07-29 17:53:00,
2013-07-29 12:58:00,86.6,72.0,30.09,SE,126,0.0,1.0,62,0.00,,---,0.00,969.00,VWS V14.00,2013-07-29 17:58:00,
2013-07-29 13:00:00,86.5,71.0,30.09,SE,137,0.0,6.0,60,0.00,,---,0.00,970.00,VWS V14.00,2013-07-29 18:00:00,
2013-07-29 13:04:00,86.8,70.3,30.09,ESE,108,0.0,5.0,58,0.00,,---,0.00,967.00,VWS V14.00,2013-07-29 18:04:00,
2013-07-29 13:09:00,86.9,70.4,30.09,ESE,109,0.0,5.0,58,0.00,,---,0.00,969.00,VWS V14.00,2013-07-29 18:09:00,
2013-07-29 13:14:00,86.9,70.9,30.09,SSE,153,0.0,6.0,59,0.00,,---,0.00,967.00,VWS V14.00,2013-07-29 18:14:00,
2013-07-29 13:19:00,86.7,69.7,30.08,ESE,117,0.0,6.0,57,0.00,,---,0.00,969.00,VWS V14.00,2013-07-29 18:19:00,
2013-07-29 13:24:00,86.6,70.1,30.08,ESE,123,0.0,6.0,58,0.00,,---,0.00,965.00,VWS V14.00,2013-07-29 18:24:00,
2013-07-29 13:29:00,86.7,71.2,30.07,SE,128,0.0,4.0,60,0.00,,---,0.00,965.00,VWS V14.00,2013-07-29 18:29:00,
2013-07-29 13:30:00,86.6,71.1,30.08,ESE,111,0.0,6.0,60,0.00,,---,0.00,963.00,VWS V14.00,2013-07-29 18:30:00,
2013-07-29 13:34:00,86.8,70.8,30.08,SSE,152,0.0,5.0,59,0.00,,---,0.00,965.00,VWS V14.00,2013-07-29 18:34:00,
2013-07-29 13:39:00,86.6,71.6,30.07,ESE,111,5.0,5.0,61,0.00,,---,0.00,944.00,VWS V14.00,2013-07-29 18:39:00,
2013-07-29 13:44:00,86.7,71.2,30.07,ESE,121,0.0,5.0,60,0.00,,---,0.00,960.00,VWS V14.00,2013-07-29 18:44:00,
2013-07-29 13:50:00,87.0,70.9,30.07,ESE,105,0.0,5.0,59,0.00,,---,0.00,967.00,VWS V14.00,2013-07-29 18:50:00,
2013-07-29 13:55:00,87.3,71.2,30.07,ESE,118,0.0,6.0,59,0.00,,---,0.00,956.00,VWS V14.00,2013-07-29 18:55:00,
2013-07-29 14:00:00,87.6,72.0,30.07,ESE,118,3.0,3.0,60,0.00,,---,0.00,956.00,VWS V14.00,2013-07-29 19:00:00,
2013-07-29 14:05:00,87.7,71.1,30.07,SE,128,0.0,3.0,58,0.00,,---,0.00,944.00,VWS V14.00,2013-07-29 19:05:00,
2013-07-29 14:10:00,87.9,70.8,30.07,ESE,118,0.0,3.0,57,0.00,,---,0.00,947.00,VWS V14.00,2013-07-29 19:10:00,
2013-07-29 14:15:00,88.2,71.6,30.06,SSE,152,2.0,7.0,58,0.00,,---,0.00,935.00,VWS V14.00,2013-07-29 19:15:00,
2013-07-29 14:20:00,88.1,72.0,30.06,East,80,0.0,7.0,59,0.00,,---,0.00,930.00,VWS V14.00,2013-07-29 19:20:00,
2013-07-29 14:25:00,88.1,72.0,30.06,East,99,0.0,7.0,59,0.00,,---,0.00,919.00,VWS V14.00,2013-07-29 19:25:00,
2013-07-29 14:30:00,88.3,71.7,30.06,ESE,102,0.0,2.0,58,0.00,,---,0.00,923.00,VWS V14.00,2013-07-29 19:30:00,
2013-07-29 14:35:00,88.6,70.9,30.06,ESE,102,0.0,2.0,56,0.00,,---,0.00,921.00,VWS V14.00,2013-07-29 19:35:00,
2013-07-29 14:40:00,89.0,71.3,30.06,SSE,147,0.0,4.0,56,0.00,,---,0.00,916.00,VWS V14.00,2013-07-29 19:40:00,
2013-07-29 14:45:00,89.2,71.5,30.06,ESE,105,0.0,4.0,56,0.00,,---,0.00,854.00,VWS V14.00,2013-07-29 19:45:00,
2013-07-29 14:50:00,89.3,72.1,30.06,ESE,103,0.0,4.0,57,0.00,,---,0.00,888.00,VWS V14.00,2013-07-29 19:50:00,
2013-07-29 14:55:00,89.5,71.2,30.06,ESE,111,1.0,5.0,55,0.00,,---,0.00,889.00,VWS V14.00,2013-07-29 19:55:00,
2013-07-29 15:00:00,89.6,70.2,30.06,SE,129,0.0,4.0,53,0.00,,---,0.00,881.00,VWS V14.00,2013-07-29 20:00:00,
2013-07-29 15:06:00,89.8,72.0,30.06,East,99,0.0,5.0,56,0.00,,---,0.00,872.00,VWS V14.00,2013-07-29 20:06:00,
2013-07-29 15:11:00,90.0,71.1,30.06,East,99,0.0,5.0,54,0.00,,---,0.00,861.00,VWS V14.00,2013-07-29 20:11:00,
2013-07-29 15:16:00,90.4,73.1,30.06,East,101,0.0,5.0,57,0.00,,---,0.00,860.00,VWS V14.00,2013-07-29 20:16:00,
2013-07-29 15:21:00,90.7,72.3,30.06,ESE,105,0.0,5.0,55,0.00,,---,0.00,786.00,VWS V14.00,2013-07-29 20:21:00,
2013-07-29 15:26:00,90.9,72.5,30.06,ESE,107,0.0,0.0,55,0.00,,---,0.00,814.00,VWS V14.00,2013-07-29 20:26:00,
2013-07-29 15:30:00,90.9,73.0,30.06,ESE,107,0.0,5.0,56,0.00,,---,0.00,814.00,VWS V14.00,2013-07-29 20:30:00,
2013-07-29 15:31:00,90.8,72.9,30.06,SE,136,0.0,5.0,56,0.00,,---,0.00,793.00,VWS V14.00,2013-07-29 20:31:00,
2013-07-29 15:36:00,90.3,71.9,30.06,South,182,0.0,5.0,55,0.00,,---,0.00,738.00,VWS V14.00,2013-07-29 20:36:00,
2013-07-29 15:41:00,89.5,71.2,30.06,South,180,0.0,5.0,55,0.00,,---,0.00,765.00,VWS V14.00,2013-07-29 20:41:00,
2013-07-29 15:46:00,89.1,71.9,30.05,South,170,2.0,5.0,57,0.00,,---,0.00,784.00,VWS V14.00,2013-07-29 20:46:00,
2013-07-29 15:52:00,89.0,72.8,30.05,SSE,153,0.0,5.0,59,0.00,,---,0.00,766.00,VWS V14.00,2013-07-29 20:52:00,
2013-07-29 15:57:00,89.2,72.0,30.05,SE,129,2.0,6.0,57,0.00,,---,0.00,747.00,VWS V14.00,2013-07-29 20:57:00,
2013-07-29 16:00:00,89.1,72.4,30.05,ESE,106,6.0,7.0,58,0.00,,---,0.00,756.00,VWS V14.00,2013-07-29 21:00:00,
2013-07-29 16:03:00,89.5,72.8,30.05,ESE,117,0.0,6.0,58,0.00,,---,0.00,726.00,VWS V14.00,2013-07-29 21:03:00,
2013-07-29 16:08:00,89.8,72.0,30.05,SE,141,0.0,6.0,56,0.00,,---,0.00,731.00,VWS V14.00,2013-07-29 21:08:00,
2013-07-29 16:13:00,90.1,72.8,30.05,ESE,123,0.0,6.0,57,0.00,,---,0.00,724.00,VWS V14.00,2013-07-29 21:13:00,
2013-07-29 16:18:00,90.4,73.1,30.05,ESE,116,0.0,6.0,57,0.00,,---,0.00,640.00,VWS V14.00,2013-07-29 21:18:00,
2013-07-29 16:23:00,90.5,72.1,30.05,SSE,167,0.0,6.0,55,0.00,,---,0.00,696.00,VWS V14.00,2013-07-29 21:23:00,
2013-07-29 16:28:00,90.3,72.5,30.05,SE,143,0.0,4.0,56,0.00,,---,0.00,679.00,VWS V14.00,2013-07-29 21:28:00,
2013-07-29 16:30:00,90.4,72.6,30.05,SSE,160,0.0,6.0,56,0.00,,---,0.00,686.00,VWS V14.00,2013-07-29 21:30:00,
2013-07-29 16:33:00,90.2,71.3,30.05,SSE,167,0.0,4.0,54,0.00,,---,0.00,659.00,VWS V14.00,2013-07-29 21:33:00,
2013-07-29 16:38:00,89.7,71.9,30.05,SSE,167,0.0,4.0,56,0.00,,---,0.00,640.00,VWS V14.00,2013-07-29 21:38:00,
2013-07-29 16:43:00,89.2,72.5,30.05,SSE,167,1.0,4.0,58,0.00,,---,0.00,622.00,VWS V14.00,2013-07-29 21:43:00,
2013-07-29 16:48:00,89.0,72.3,30.05,SSE,168,0.0,4.0,58,0.00,,---,0.00,605.00,VWS V14.00,2013-07-29 21:48:00,
2013-07-29 16:53:00,88.7,71.5,30.05,SSE,156,0.0,5.0,57,0.00,,---,0.00,587.00,VWS V14.00,2013-07-29 21:53:00,
2013-07-29 16:58:00,88.6,72.4,30.05,SE,146,0.0,2.0,59,0.00,,---,0.00,570.00,VWS V14.00,2013-07-29 21:58:00,
2013-07-29 17:00:00,88.6,71.9,30.05,SE,146,0.0,5.0,58,0.00,,---,0.00,578.00,VWS V14.00,2013-07-29 22:00:00,
2013-07-29 17:03:00,88.5,72.3,30.05,SE,143,0.0,4.0,59,0.00,,---,0.00,555.00,VWS V14.00,2013-07-29 22:03:00,
2013-07-29 17:09:00,88.3,70.6,30.05,South,179,0.0,4.0,56,0.00,,---,0.00,538.00,VWS V14.00,2013-07-29 22:09:00,
2013-07-29 17:14:00,88.1,71.0,30.05,South,178,0.0,4.0,57,0.00,,---,0.00,522.00,VWS V14.00,2013-07-29 22:14:00,
2013-07-29 17:19:00,87.9,71.3,30.05,South,178,0.0,4.0,58,0.00,,---,0.00,504.00,VWS V14.00,2013-07-29 22:19:00,
2013-07-29 17:24:00,88.1,72.5,30.05,ESE,115,1.0,4.0,60,0.00,,---,0.00,489.00,VWS V14.00,2013-07-29 22:24:00,
2013-07-29 17:29:00,88.3,72.2,30.05,ESE,109,1.0,3.0,59,0.00,,---,0.00,469.00,VWS V14.00,2013-07-29 22:29:00,
2013-07-29 17:30:00,88.2,71.6,30.05,SSE,165,2.0,4.0,58,0.00,,---,0.00,480.00,VWS V14.00,2013-07-29 22:30:00,
2013-07-29 17:34:00,88.5,71.3,30.04,ESE,111,0.0,3.0,57,0.00,,---,0.00,452.00,VWS V14.00,2013-07-29 22:34:00,
2013-07-29 17:39:00,89.1,72.4,30.04,ESE,117,0.0,4.0,58,0.00,,---,0.00,438.00,VWS V14.00,2013-07-29 22:39:00,
2013-07-29 17:44:00,89.5,72.8,30.04,SE,135,0.0,4.0,58,0.00,,---,0.00,417.00,VWS V14.00,2013-07-29 22:44:00,
2013-07-29 17:49:00,89.9,72.1,30.04,SE,125,0.0,4.0,56,0.00,,---,0.00,401.00,VWS V14.00,2013-07-29 22:49:00,
2013-07-29 17:54:00,90.1,72.8,30.04,ESE,123,0.0,4.0,57,0.00,,---,0.00,383.00,VWS V14.00,2013-07-29 22:54:00,
2013-07-29 17:59:00,90.3,71.9,30.04,ESE,123,0.0,3.0,55,0.00,,---,0.00,362.00,VWS V14.00,2013-07-29 22:59:00,
2013-07-29 18:00:00,90.2,72.4,30.04,ESE,123,0.0,4.0,56,0.00,,---,0.00,374.00,VWS V14.00,2013-07-29 23:00:00,
2013-07-29 18:04:00,90.6,72.2,30.04,ESE,123,0.0,3.0,55,0.00,,---,0.00,350.00,VWS V14.00,2013-07-29 23:04:00,
2013-07-29 18:09:00,90.7,72.9,30.04,ESE,123,0.0,3.0,56,0.00,,---,0.00,332.00,VWS V14.00,2013-07-29 23:09:00,
2013-07-29 18:14:00,90.9,73.0,30.03,ESE,115,2.0,3.0,56,0.00,,---,0.00,315.00,VWS V14.00,2013-07-29 23:14:00,
2013-07-29 18:20:00,91.0,72.6,30.03,ESE,111,0.0,4.0,55,0.00,,---,0.00,297.00,VWS V14.00,2013-07-29 23:20:00,
2013-07-29 18:25:00,91.1,73.8,30.04,ESE,113,0.0,4.0,57,0.00,,---,0.00,279.00,VWS V14.00,2013-07-29 23:25:00,
2013-07-29 18:30:00,91.0,72.6,30.04,SE,137,0.0,3.0,55,0.00,,---,0.00,260.00,VWS V14.00,2013-07-29 23:30:00,
2013-07-29 18:35:00,90.8,73.5,30.04,SE,134,0.0,3.0,57,0.00,,---,0.00,241.00,VWS V14.00,2013-07-29 23:35:00,
2013-07-29 18:40:00,90.6,73.3,30.04,SE,133,0.0,3.0,57,0.00,,---,0.00,216.00,VWS V14.00,2013-07-29 23:40:00,
2013-07-29 18:45:00,90.2,73.4,30.04,SE,131,0.0,3.0,58,0.00,,---,0.00,190.00,VWS V14.00,2013-07-29 23:45:00,
2013-07-29 18:50:00,89.5,72.8,30.04,SE,136,0.0,3.0,58,0.00,,---,0.00,69.00,VWS V14.00,2013-07-29 23:50:00,
2013-07-29 18:55:00,88.7,72.5,30.04,SE,136,0.0,3.0,59,0.00,,---,0.00,58.00,VWS V14.00,2013-07-29 23:55:00,
2013-07-29 19:00:00,87.9,72.3,30.04,SE,136,0.0,0.0,60,0.00,,---,0.00,35.00,VWS V14.00,2013-07-30 00:00:00,
2013-07-29 19:05:00,87.2,72.6,30.04,SE,136,0.0,0.0,62,0.00,,---,0.00,30.00,VWS V14.00,2013-07-30 00:05:00,
2013-07-29 19:10:00,86.7,72.1,30.04,SE,136,0.0,0.0,62,0.00,,---,0.00,28.00,VWS V14.00,2013-07-30 00:10:00,
2013-07-29 19:15:00,86.2,72.1,30.04,SE,136,0.0,0.0,63,0.00,,---,0.00,25.00,VWS V14.00,2013-07-30 00:15:00,
2013-07-29 19:20:00,85.7,72.1,30.04,SE,136,0.0,0.0,64,0.00,,---,0.00,25.00,VWS V14.00,2013-07-30 00:20:00,
2013-07-29 19:25:00,85.3,71.8,30.05,SE,136,0.0,0.0,64,0.00,,---,0.00,19.00,VWS V14.00,2013-07-30 00:25:00,
2013-07-29 19:30:00,85.0,71.9,30.05,SE,136,0.0,0.0,65,0.00,,---,0.00,16.00,VWS V14.00,2013-07-30 00:30:00,
2013-07-29 19:35:00,84.5,72.3,30.05,SE,136,0.0,0.0,67,0.00,,---,0.00,12.00,VWS V14.00,2013-07-30 00:35:00,
2013-07-29 19:41:00,84.0,72.3,30.05,SE,136,0.0,0.0,68,0.00,,---,0.00,12.00,VWS V14.00,2013-07-30 00:41:00,
2013-07-29 19:46:00,83.5,72.3,30.05,SE,136,0.0,0.0,69,0.00,,---,0.00,11.00,VWS V14.00,2013-07-30 00:46:00,
2013-07-29 19:51:00,83.2,72.4,30.05,SE,136,0.0,0.0,70,0.00,,---,0.00,7.00,VWS V14.00,2013-07-30 00:51:00,
2013-07-29 19:56:00,82.7,72.3,30.04,SE,136,0.0,0.0,71,0.00,,---,0.00,5.00,VWS V14.00,2013-07-30 00:56:00,
2013-07-29 20:00:00,82.6,72.2,30.04,SE,136,0.0,0.0,71,0.00,,---,0.00,5.00,VWS V14.00,2013-07-30 01:00:00,
2013-07-29 20:01:00,82.1,72.2,30.04,SE,136,0.0,0.0,72,0.00,,---,0.00,0.00,VWS V14.00,2013-07-30 01:01:00,
2013-07-29 20:06:00,81.6,71.7,30.04,SE,136,0.0,1.0,72,0.00,,---,0.00,0.00,VWS V14.00,2013-07-30 01:06:00,
2013-07-29 20:12:00,81.2,71.7,30.05,SE,136,0.0,1.0,73,0.00,,---,0.00,0.00,VWS V14.00,2013-07-30 01:12:00,
2013-07-29 20:17:00,81.0,71.9,30.04,SE,136,0.0,1.0,74,0.00,,---,0.00,0.00,VWS V14.00,2013-07-30 01:17:00,
2013-07-29 20:22:00,80.7,71.7,30.04,SE,136,0.0,1.0,74,0.00,,---,0.00,0.00,VWS V14.00,2013-07-30 01:22:00,
2013-07-29 20:27:00,80.4,71.8,30.04,SE,136,0.0,0.0,75,0.00,,---,0.00,0.00,VWS V14.00,2013-07-30 01:27:00,
2013-07-29 20:30:00,80.4,71.8,30.05,SE,136,0.0,1.0,75,0.00,,---,0.00,0.00,VWS V14.00,2013-07-30 01:30:00,
2013-07-29 20:32:00,80.1,71.5,30.04,SE,136,0.0,0.0,75,0.00,,---,0.00,0.00,VWS V14.00,2013-07-30 01:32:00,
2013-07-29 20:37:00,79.8,71.2,30.04,SE,136,0.0,0.0,75,0.00,,---,0.00,0.00,VWS V14.00,2013-07-30 01:37:00,
2013-07-29 20:42:00,79.6,71.4,30.05,SE,136,0.0,0.0,76,0.00,,---,0.00,0.00,VWS V14.00,2013-07-30 01:42:00,
2013-07-29 20:47:00,79.5,71.3,30.05,SE,136,0.0,0.0,76,0.00,,---,0.00,0.00,VWS V14.00,2013-07-30 01:47:00,
2013-07-29 20:53:00,79.4,71.2,30.05,SE,136,0.0,0.0,76,0.00,,---,0.00,0.00,VWS V14.00,2013-07-30 01:53:00,
2013-07-29 20:58:00,79.3,71.1,30.05,SE,136,0.0,0.0,76,0.00,,---,0.00,0.00,VWS V14.00,2013-07-30 01:58:00,
2013-07-29 21:00:00,79.3,71.1,30.05,SE,136,0.0,0.0,76,0.00,,---,0.00,0.00,VWS V14.00,2013-07-30 02:00:00,
2013-07-29 21:03:00,79.1,70.9,30.05,SE,136,0.0,0.0,76,0.00,,---,0.00,0.00,VWS V14.00,2013-07-30 02:03:00,
2013-07-29 21:08:00,78.9,70.7,30.05,SE,136,0.0,0.0,76,0.00,,---,0.00,0.00,VWS V14.00,2013-07-30 02:08:00,
2013-07-29 21:13:00,78.7,70.5,30.05,SE,136,0.0,0.0,76,0.00,,---,0.00,0.00,VWS V14.00,2013-07-30 02:13:00,
2013-07-29 21:18:00,78.6,70.4,30.05,SE,136,0.0,0.0,76,0.00,,---,0.00,0.00,VWS V14.00,2013-07-30 02:18:00,
2013-07-29 21:23:00,78.5,70.7,30.06,SE,136,0.0,1.0,77,0.00,,---,0.00,0.00,VWS V14.00,2013-07-30 02:23:00,
2013-07-29 21:28:00,78.5,70.7,30.06,SE,136,0.0,0.0,77,0.00,,---,0.00,0.00,VWS V14.00,2013-07-30 02:28:00,
2013-07-29 21:30:00,78.5,70.7,30.06,SE,136,0.0,1.0,77,0.00,,---,0.00,0.00,VWS V14.00,2013-07-30 02:30:00,
2013-07-29 21:33:00,78.5,70.7,30.06,SE,136,0.0,0.0,77,0.00,,---,0.00,0.00,VWS V14.00,2013-07-30 02:33:00,
2013-07-29 21:38:00,78.4,70.6,30.06,SE,136,0.0,0.0,77,0.00,,---,0.00,0.00,VWS V14.00,2013-07-30 02:38:00,
2013-07-29 21:43:00,78.3,70.9,30.06,SE,136,0.0,1.0,78,0.00,,---,0.00,0.00,VWS V14.00,2013-07-30 02:43:00,
2013-07-29 21:48:00,78.2,70.8,30.06,SE,136,0.0,1.0,78,0.00,,---,0.00,0.00,VWS V14.00,2013-07-30 02:48:00,
2013-07-29 21:53:00,78.2,70.8,30.06,SE,136,0.0,4.0,78,0.00,,---,0.00,0.00,VWS V14.00,2013-07-30 02:53:00,
2013-07-29 21:58:00,78.1,70.7,30.06,SE,136,0.0,0.0,78,0.00,,---,0.00,0.00,VWS V14.00,2013-07-30 02:58:00,
2013-07-29 22:00:00,78.1,70.7,30.06,SE,136,0.0,4.0,78,0.00,,---,0.00,0.00,VWS V14.00,2013-07-30 03:00:00,
2013-07-29 22:04:00,78.0,71.0,30.06,SE,136,0.0,0.0,79,0.00,,---,0.00,0.00,VWS V14.00,2013-07-30 03:04:00,
2013-07-29 22:09:00,77.9,70.9,30.06,SE,136,0.0,0.0,79,0.00,,---,0.00,0.00,VWS V14.00,2013-07-30 03:09:00,
2013-07-29 22:14:00,77.9,70.9,30.06,SE,136,0.0,0.0,79,0.00,,---,0.00,0.00,VWS V14.00,2013-07-30 03:14:00,
2013-07-29 22:19:00,77.8,70.8,30.06,SE,136,0.0,0.0,79,0.00,,---,0.00,0.00,VWS V14.00,2013-07-30 03:19:00,
2013-07-29 22:24:00,77.6,70.6,30.06,SE,136,0.0,0.0,79,0.00,,---,0.00,0.00,VWS V14.00,2013-07-30 03:24:00,
2013-07-29 22:29:00,77.5,70.8,30.07,SE,136,0.0,0.0,80,0.00,,---,0.00,0.00,VWS V14.00,2013-07-30 03:29:00,
2013-07-29 22:30:00,77.6,70.9,30.06,SE,136,0.0,0.0,80,0.00,,---,0.00,0.00,VWS V14.00,2013-07-30 03:30:00,
2013-07-29 22:35:00,77.4,70.8,30.06,SE,136,0.0,0.0,80,0.00,,---,0.00,0.00,VWS V14.00,2013-07-30 03:35:00,
2013-07-29 22:40:00,77.3,70.7,30.07,SE,136,0.0,0.0,80,0.00,,---,0.00,0.00,VWS V14.00,2013-07-30 03:40:00,
2013-07-29 22:45:00,77.2,70.9,30.06,SE,136,0.0,0.0,81,0.00,,---,0.00,0.00,VWS V14.00,2013-07-30 03:45:00,
2013-07-29 22:50:00,77.1,70.8,30.06,SE,136,0.0,0.0,81,0.00,,---,0.00,0.00,VWS V14.00,2013-07-30 03:50:00,
2013-07-29 22:55:00,77.0,70.7,30.06,SE,136,0.0,0.0,81,0.00,,---,0.00,0.00,VWS V14.00,2013-07-30 03:55:00,
2013-07-29 23:00:00,76.9,70.6,30.06,SE,136,0.0,0.0,81,0.00,,---,0.00,0.00,VWS V14.00,2013-07-30 04:00:00,
2013-07-29 23:01:00,76.9,70.6,30.06,SE,136,0.0,0.0,81,0.00,,---,0.00,0.00,VWS V14.00,2013-07-30 04:01:00,
2013-07-29 23:06:00,76.7,70.8,30.06,SE,136,0.0,0.0,82,0.00,,---,0.00,0.00,VWS V14.00,2013-07-30 04:06:00,
2013-07-29 23:11:00,76.6,70.7,30.06,SE,136,0.0,0.0,82,0.00,,---,0.00,0.00,VWS V14.00,2013-07-30 04:11:00,
2013-07-29 23:16:00,76.4,70.5,30.06,SE,136,0.0,0.0,82,0.00,,---,0.00,0.00,VWS V14.00,2013-07-30 04:16:00,
2013-07-29 23:21:00,76.3,70.8,30.06,SE,136,0.0,0.0,83,0.00,,---,0.00,0.00,VWS V14.00,2013-07-30 04:21:00,
2013-07-29 23:26:00,76.2,70.7,30.06,SE,136,0.0,0.0,83,0.00,,---,0.00,0.00,VWS V14.00,2013-07-30 04:26:00,
2013-07-29 23:30:00,76.2,70.7,30.06,SE,136,0.0,0.0,83,0.00,,---,0.00,0.00,VWS V14.00,2013-07-30 04:30:00,
2013-07-29 23:31:00,76.1,70.6,30.06,SE,136,0.0,0.0,83,0.00,,---,0.00,0.00,VWS V14.00,2013-07-30 04:31:00,
2013-07-29 23:37:00,76.0,70.5,30.06,SE,136,0.0,0.0,83,0.00,,---,0.00,0.00,VWS V14.00,2013-07-30 04:37:00,
2013-07-29 23:42:00,75.9,70.4,30.06,SE,136,0.0,0.0,83,0.00,,---,0.00,0.00,VWS V14.00,2013-07-30 04:42:00,
2013-07-29 23:47:00,75.8,70.3,30.06,SE,136,0.0,0.0,83,0.00,,---,0.00,0.00,VWS V14.00,2013-07-30 04:47:00,
2013-07-29 23:52:00,75.7,70.2,30.06,SE,136,0.0,0.0,83,0.00,,---,0.00,0.00,VWS V14.00,2013-07-30 04:52:00,
2013-07-29 23:57:00,75.7,70.2,30.06,SE,136,0.0,0.0,83,0.00,,---,0.00,0.00,VWS V14.00,2013-07-30 04:57:00,